Regional Weather Roundup
Issued by NWS

Home | Current Version | Previous Version | Text Only | Print | Product List | Glossary Off
Versions: 1 2 3 4 5 6 7 8 9 10 11 12 13 14 15 16 17 18 19 20 21 22 23 24 25 26 27 28 29 30 31 32 33 34 35 36 37 38 39 40 41 42 43 44 45 46 47 48 49 50

000
ASUS43 KFSD 181902
RWRSD

WEATHER ROUNDUP FOR SOUTH DAKOTA
NATIONAL WEATHER SERVICE SIOUX FALLS SD
100 PM CST SAT NOV 18 2017

NOTE: "FAIR" INDICATES FEW OR NO CLOUDS BELOW 12,000 FEET WITH NO
SIGNIFICANT WEATHER AND/OR OBSTRUCTIONS TO VISIBILITY.


SDZ001>005-009-010-012>017-182000-
NORTHWEST AND NORTH CENTRAL SOUTH DAKOTA

CITY           SKY/WX    TMP DP  RH WIND       PRES   REMARKS
BUFFALO          N/A     37  23  56 W21       30.03F
FAITH            N/A     37  24  59 NW21G30   30.09F
MOBRIDGE       SUNNY     33  16  49 NW14      30.09F WCI  23
$$

SDZ012>016-024>037-041>051-057-063-072>074-182000-
SOUTHWEST AND SOUTH CENTRAL SOUTH DAKOTA

CITY           SKY/WX    TMP DP  RH WIND       PRES   REMARKS
RAPID CTY ARPT CLOUDY    43  17  35 NW21G30   30.13F
PIERRE         SUNNY     34  21  59 NW18      30.13F WCI  23
CUSTER         SUNNY     33  12  41 NW14G28   30.10F WCI  23
ELLSWORTH AFB  CLOUDY    43  18  36 NW23      30.11F
PHILIP         SUNNY     42  25  50 NW21G28   30.13F
PINE RIDGE     SUNNY     43  18  36 W16G24    30.17F
SPEARFISH      FAIR      39  16  38 W18G25    30.12F
WINNER         FAIR      40  26  57 NW24G30   30.12F
$$

SDZ004>011-016>023-039-040-182000-
NORTHEAST SOUTH DAKOTA

CITY           SKY/WX    TMP DP  RH WIND       PRES   REMARKS
ABERDEEN       SUNNY     31  14  49 NW22      30.08F WCI  18
WATERTOWN      SUNNY     29  15  56 NW18      30.00S WCI  16
BROOKINGS      SUNNY     31  18  58 NW22G29   29.99S WCI  18
SISSETON         N/A     29  13  51 NW24G32   30.02S WCI  15
$$

SDZ017-020-022-023-036>040-048>070-182000-
SOUTHEAST SOUTH DAKOTA

CITY           SKY/WX    TMP DP  RH WIND       PRES   REMARKS
SIOUX FALLS    MOSUNNY   37  22  54 NW25G32   30.00F
HURON          SUNNY     33  17  51 NW18G25   30.09F WCI  22
CHAMBERLAIN    SUNNY     35  23  60 NW17G26   30.12F WCI  25
MITCHELL       SUNNY     35  17  47 NW23G29   30.10S WCI  23
YANKTON        MOSUNNY   37  25  61 NW25G31   30.05S
$$

ABBREVIATIONS USED IN REMARKS
   TC - TEMPERATURE IN CELSIUS
  WCI - WIND CHILL INDEX
   HX - HEAT INDEX
  VSB - VISIBILITY





USA.gov is the U.S. government's official web portal to all federal, state and local government web resources and services.